Probability
0 0 0 0 0 0 0 0 0 0 3 3 10 3 6 10 13 13 19 16 16 10 0 6 13 13 10 16 19 23 32 29 23 23 19 16 13 3 3 0 3 0 0 0
0 0 0 0 0 0 0 0 0 0 0 0 0 3 6 26 26 23 23 16 13 13 6 10 13 13 13 13 23 26 26 26 19 16 16 13 6 6 6 6 3 0 0 0
0 0 0 0 0 0 0 0 0 0 3 6 3 19 19 16 23 23 26 19 19 23 13 16 16 10 13 13 19 19 19 16 13 13 10 10 6 10 6 6 0 0 0 0
0 0 0 0 0 0 0 0 3 3 6 10 10 10 16 16 19 10 13 19 19 16 23 16 6 6 3 10 6 13 13 13 13 10 10 10 6 10 3 0 0 0 0 0
0 0 0 0 0 0 0 0 3 0 3 6 13 13 10 19 13 13 6 10 10 16 23 19 13 6 6 10 10 10 13 13 10 10 10 6 6 0 0 0 0 0 0 0
0 0 0 0 0 0 0 0 0 6 3 0 16 13 16 13 6 13 13 6 10 13 19 13 13 13 13 13 10 10 10 10 10 3 3 3 0 0 0 0 0 0 0 0
0 0 0 0 0 0 0 0 3 10 3 3 6 10 13 13 13 16 13 10 10 13 13 13 10 13 13 13 6 6 3 3 3 0 0 0 0 0 0 0 0 0 0 0
0 0 0 0 0 0 0 0 3 3 6 6 6 6 13 13 6 10 13 13 10 10 13 6 6 10 6 3 3 3 0 0 0 0 0 0 0 0 0 0 0 0 0 0
0 0 0 0 0 0 0 0 0 0 3 6 6 6 6 6 6 6 10 10 6 10 6 3 3 3 3 3 3 0 0 0 0 0 0 0 0 0 0 0 0 0 0 0
0 0 0 0 0 0 0 0 0 0 0 0 6 0 0 0 0 3 3 3 3 3 3 0 0 0 3 0 0 0 0 0 0 0 0 0 0 0 0 0 0 0 0 0
0 0 0 0 0 0 0 0 0 0 0 0 0 0 0 0 0 0 0 0 0 0 0 0 0 0 0 0 0 0 0 0 0 0 0 0 0 0 0 0 0 0 0 0
0 0 0 0 0 0 0 0 0 3 3 3 0 0 0 0 0 0 0 0 0 0 0 0 0 0 0 0 0 0 0 0 0 0 0 0 0 0 0 0 0 0 0 0
0 0 0 0 0 0 0 0 0 0 0 0 0 0 0 0 0 0 0 0 0 0 0 0 0 0 0 0 0 0 0 0 0 0 0 0 0 0 0 0 0 0 0 0
0 0 0 0 0 0 0 0 0 0 0 0 0 0 0 0 0 0 0 0 0 0 0 0 0 0 0 0 0 0 0 0 0 0 0 0 0 0 0 0 0 0 0 0
0 0 0 0 0 0 0 0 0 0 0 0 0 0 0 0 0 0 0 0 0 0 0 0 0 0 0 0 0 0 0 0 0 0 0 0 0 0 0 0 0 0 0 0
0 0 0 0 0 0 0 0 0 0 0 0 0 0 0 0 0 0 0 0 0 0 0 0 0 0 0 0 0 0 0 0 0 0 0 0 0 0 0 0 0 0 0 0
0 0 0 0 0 0 0 0 0 0 0 0 0 0 0 0 0 0 0 0 0 0 0 0 0 0 0 0 0 0 0 0 0 0 0 0 0 0 0 0 0 0 0 0
0 0 0 0 0 0 0 0 0 0 0 0 0 0 0 0 0 0 0 0 0 0 0 0 0 0 0 0 0 0 0 0 0 0 0 0 0 0 0 0 0 0 0 0
0 0 0 0 0 0 0 0 0 0 0 0 0 0 0 0 0 0 0 0 0 0 0 0 0 0 0 0 0 0 0 0 0 0 0 0 0 0 0 0 0 0 0 0
0 0 0 0 0 0 0 0 0 0 0 0 0 0 0 0 0 0 0 0 0 0 0 0 0 0 0 0 0 0 0 0 0 0 0 0 0 0 0 0 0 0 0 0
0 0 0 0 0 0 0 0 0 0 0 0 0 0 0 0 0 0 0 0 0 0 0 0 0 0 0 0 0 0 0 0 0 0 0 0 0 0 0 0 0 0 0 0
0 0 0 0 0 0 0 0 0 0 0 0 0 0 0 0 0 0 0 0 0 0 0 0 0 0 0 0 0 0 0 0 0 0 0 0 0 0 0 0 0 0 0 0
0 0 0 0 0 0 0 0 0 0 0 0 0 0 0 0 0 0 0 0 0 0 0 0 0 0 0 0 0 0 0 0 0 0 0 0 0 0 0 0 0 0 0 0
0 0 0 0 0 0 0 0 0 0 0 0 0 0 0 0 0 0 0 0 0 0 0 0 0 0 0 0 0 0 0 0 0 0 0 0 0 0 0 0 0 0 0 0
0 0 0 0 0 0 0 0 0 0 0 0 0 0 0 0 0 0 0 0 0 0 0 0 0 0 0 0 0 0 0 0 0 0 0 0 0 0 0 0 0 0 0 0
0 0 0 0 0 0 0 0 0 0 0 0 0 0 0 0 0 0 0 0 0 0 0 0 0 0 0 0 0 0 0 0 0 0 0 0 0 0 0 0 0 0 0 0
0 0 0 0 0 0 0 0 0 0 0 0 0 0 0 0 0 0 0 0 0 0 0 0 0 0 0 0 0 0 0 0 0 0 0 0 0 0 0 0 0 0 0 0
Height
5810 5813 5815 5817 5818 5819 5820 5821 5822 5824 5825 5826 5826 5828 5829 5830 5830 5831 5832 5831 5830 5830 5830 5830 5830 5829 5829 5829 5828 5827 5827 5826 5827 5827 5827 5828 5829 5830 5831 5831 5832 5833 5834 5835
5804 5806 5808 5810 5813 5814 5815 5816 5816 5818 5819 5821 5822 5823 5825 5826 5826 5827 5828 5828 5828 5828 5828 5828 5828 5827 5827 5826 5826 5825 5824 5824 5824 5824 5824 5825 5825 5825 5826 5827 5827 5828 5829 5829
5797 5799 5801 5804 5807 5808 5808 5809 5811 5812 5814 5815 5817 5818 5819 5820 5821 5822 5823 5824 5824 5824 5824 5825 5825 5824 5824 5823 5823 5822 5822 5821 5821 5821 5821 5821 5822 5822 5822 5822 5823 5823 5823 5824
5789 5793 5794 5799 5799 5799 5800 5801 5803 5805 5808 5810 5811 5812 5813 5815 5816 5816 5818 5819 5820 5820 5820 5821 5821 5820 5820 5820 5819 5818 5818 5818 5818 5819 5819 5818 5818 5818 5818 5818 5818 5818 5818 5818
5781 5783 5785 5789 5790 5791 5792 5793 5796 5799 5801 5803 5805 5806 5807 5809 5810 5811 5812 5813 5815 5815 5816 5816 5816 5816 5816 5816 5815 5815 5815 5815 5815 5815 5815 5815 5814 5814 5814 5813 5812 5812 5812 5812
5772 5775 5778 5782 5783 5783 5786 5786 5789 5791 5794 5796 5798 5800 5802 5803 5804 5805 5806 5807 5808 5808 5809 5810 5811 5811 5811 5811 5811 5811 5811 5810 5810 5810 5810 5810 5810 5809 5808 5808 5807 5807 5806 5806
5765 5767 5770 5774 5776 5777 5779 5780 5783 5784 5787 5788 5790 5792 5794 5795 5797 5798 5799 5800 5800 5801 5802 5803 5804 5804 5805 5805 5805 5805 5805 5805 5804 5804 5804 5804 5804 5804 5803 5803 5802 5801 5800 5799
5758 5760 5764 5766 5768 5770 5771 5773 5775 5777 5779 5780 5782 5784 5785 5787 5789 5790 5791 5792 5792 5793 5794 5795 5796 5797 5798 5798 5799 5800 5800 5800 5799 5799 5799 5798 5798 5798 5797 5797 5796 5794 5793 5792
5751 5755 5756 5758 5760 5762 5763 5765 5767 5769 5771 5772 5773 5775 5777 5779 5781 5782 5784 5785 5785 5786 5787 5788 5790 5791 5791 5792 5793 5793 5793 5794 5793 5793 5793 5792 5792 5792 5791 5790 5788 5787 5786 5785
5744 5746 5748 5750 5752 5754 5756 5757 5759 5761 5762 5764 5765 5767 5769 5771 5773 5774 5776 5777 5778 5779 5780 5781 5783 5784 5785 5786 5786 5786 5786 5787 5787 5787 5786 5786 5785 5785 5784 5783 5781 5779 5778 5777
5737 5739 5741 5743 5745 5746 5748 5749 5750 5752 5754 5756 5757 5758 5760 5763 5764 5766 5767 5769 5770 5771 5773 5774 5776 5777 5778 5779 5779 5780 5779 5780 5780 5780 5779 5779 5778 5777 5776 5775 5774 5772 5770 5769
5730 5732 5734 5736 5737 5738 5740 5741 5743 5744 5746 5747 5748 5750 5752 5754 5756 5757 5759 5761 5762 5764 5765 5766 5768 5769 5771 5772 5772 5773 5772 5772 5773 5773 5772 5771 5771 5770 5768 5767 5766 5764 5762 5760
5723 5725 5727 5729 5730 5731 5732 5734 5736 5736 5738 5739 5741 5742 5744 5746 5748 5749 5751 5753 5755 5756 5758 5759 5761 5762 5763 5764 5765 5765 5765 5765 5765 5765 5765 5764 5763 5762 5760 5759 5757 5755 5752 5750
5717 5719 5720 5722 5723 5724 5726 5727 5728 5729 5730 5732 5733 5734 5736 5738 5740 5742 5744 5746 5748 5749 5751 5752 5754 5755 5756 5757 5758 5758 5758 5758 5758 5757 5757 5756 5755 5754 5752 5750 5748 5745 5743 5740
5711 5713 5715 5716 5717 5718 5719 5720 5722 5723 5724 5725 5726 5728 5730 5732 5734 5736 5738 5740 5741 5743 5744 5746 5748 5749 5750 5751 5751 5752 5751 5751 5751 5750 5749 5748 5747 5745 5743 5741 5739 5736 5733 5730
5706 5707 5709 5710 5711 5712 5714 5715 5716 5717 5719 5720 5721 5723 5724 5727 5729 5731 5733 5735 5736 5738 5739 5741 5742 5743 5744 5745 5745 5745 5744 5744 5744 5743 5742 5741 5739 5737 5735 5732 5729 5726 5723 5719
5701 5703 5705 5706 5707 5708 5709 5710 5712 5713 5714 5716 5717 5719 5721 5723 5725 5727 5728 5730 5732 5733 5734 5736 5737 5738 5738 5739 5739 5739 5738 5737 5736 5735 5734 5733 5731 5728 5726 5723 5720 5716 5713 5708
5697 5699 5700 5702 5703 5704 5706 5707 5708 5710 5712 5713 5715 5716 5718 5720 5721 5723 5724 5726 5727 5729 5730 5731 5732 5732 5733 5733 5733 5732 5732 5730 5729 5728 5726 5724 5722 5719 5716 5713 5710 5706 5701 5697
5694 5696 5697 5699 5700 5702 5703 5704 5706 5708 5710 5711 5713 5714 5715 5717 5718 5719 5721 5723 5724 5724 5726 5726 5727 5727 5727 5727 5727 5726 5725 5724 5722 5720 5718 5715 5713 5709 5706 5702 5699 5694 5690 5686
5692 5694 5695 5697 5699 5700 5702 5704 5705 5707 5708 5710 5711 5712 5714 5715 5716 5718 5719 5720 5721 5722 5722 5722 5723 5723 5722 5722 5721 5720 5718 5717 5714 5712 5709 5706 5703 5699 5695 5692 5688 5684 5679 5675
5691 5693 5695 5696 5698 5700 5702 5704 5705 5707 5708 5709 5710 5712 5713 5714 5715 5716 5717 5718 5718 5718 5718 5718 5718 5718 5717 5716 5715 5713 5711 5709 5706 5703 5700 5696 5693 5690 5686 5682 5678 5674 5670 5665
5690 5692 5694 5696 5698 5700 5702 5704 5705 5707 5708 5709 5710 5711 5712 5713 5714 5714 5715 5715 5715 5715 5715 5714 5714 5713 5712 5710 5708 5706 5703 5701 5698 5694 5691 5688 5684 5680 5677 5673 5669 5665 5661 5656
5690 5692 5694 5696 5698 5700 5702 5703 5705 5706 5707 5708 5709 5710 5711 5712 5712 5713 5713 5713 5712 5711 5710 5710 5708 5707 5705 5703 5700 5698 5695 5692 5689 5686 5683 5679 5675 5672 5668 5664 5661 5657 5653 5649
5690 5692 5694 5696 5698 5700 5701 5703 5704 5705 5706 5707 5708 5709 5709 5709 5709 5709 5709 5708 5708 5707 5705 5704 5702 5700 5698 5695 5693 5690 5687 5684 5681 5677 5674 5671 5668 5664 5661 5657 5653 5650 5646 5642
5690 5692 5694 5696 5697 5699 5701 5702 5703 5704 5705 5705 5706 5706 5706 5706 5705 5705 5704 5703 5702 5700 5699 5697 5695 5692 5690 5687 5685 5682 5679 5676 5673 5669 5666 5663 5660 5657 5653 5650 5646 5643 5639 5635
5690 5692 5693 5695 5697 5698 5699 5700 5701 5702 5702 5702 5702 5702 5702 5701 5700 5699 5698 5697 5695 5693 5691 5689 5687 5684 5682 5679 5677 5674 5671 5668 5665 5662 5659 5656 5653 5649 5646 5643 5640 5636 5633 5629
5689 5691 5693 5694 5695 5696 5697 5698 5699 5699 5699 5698 5698 5697 5696 5695 5694 5693 5691 5690 5688 5686 5684 5681 5679 5677 5674 5672 5669 5666 5663 5660 5657 5655 5652 5649 5646 5643 5640 5637 5634 5631 5627 5624
Wind_Speed
29 29 29 29 28 28 28 27 25 24 23 23 22 20 18 16 15 15 12 11 8 7 8 9 9 9 8 8 8 8 7 7 8 10 12 13 15 17 18 18 19 20 20 20
32 31 32 32 31 31 31 31 30 29 27 26 24 23 21 19 18 16 14 13 12 12 10 10 10 10 10 10 9 9 9 9 9 11 12 13 14 17 19 19 19 20 20 20
34 33 34 34 33 34 35 34 34 32 30 29 28 26 24 23 22 19 16 15 14 14 13 13 12 12 11 11 10 10 10 10 10 10 12 13 13 15 17 18 18 19 20 20
33 33 35 34 34 36 37 36 34 32 30 30 29 27 27 25 24 21 18 17 16 16 16 15 14 13 13 12 11 11 11 11 12 12 12 13 14 15 17 19 19 19 20 20
34 33 33 33 35 36 37 37 36 34 33 31 30 29 28 26 24 22 21 20 19 19 18 17 16 15 15 14 13 13 13 13 13 14 14 15 15 16 16 16 18 19 19 21
34 33 32 31 33 36 37 39 36 35 34 33 32 30 27 26 25 24 24 23 22 21 21 19 18 18 18 17 17 16 16 16 16 16 16 16 17 17 17 17 17 19 20 21
34 32 31 30 31 33 36 36 35 35 34 33 32 30 29 28 27 26 26 26 25 24 23 21 22 21 20 19 19 18 18 18 18 18 18 18 19 19 19 20 20 21 23 24
33 32 31 29 29 32 34 34 34 33 33 33 31 30 29 28 27 27 27 28 27 25 23 23 22 21 21 21 21 20 20 20 20 20 20 20 21 21 21 22 24 24 26 26
31 30 28 28 28 30 32 33 33 33 33 32 32 31 30 30 29 28 28 28 27 25 25 24 24 23 23 22 21 21 21 20 20 21 22 21 22 22 23 24 25 25 26 26
30 29 28 27 28 28 29 31 32 32 32 32 32 31 30 29 29 28 28 29 29 27 26 26 26 25 24 22 21 21 21 21 22 22 23 22 23 23 23 24 25 26 27 28
28 29 29 28 27 26 26 27 28 30 31 32 31 30 29 28 28 28 29 28 27 26 26 26 25 24 24 24 23 23 23 23 23 24 24 24 24 24 25 26 26 27 28 29
29 28 27 26 25 25 25 26 26 27 28 28 28 29 29 28 28 28 27 26 25 25 25 25 24 24 24 24 24 24 25 24 24 24 24 25 25 25 26 26 27 29 30 31
28 27 26 25 25 24 24 24 24 24 24 25 26 27 28 27 28 27 26 25 24 24 25 24 24 24 24 24 24 24 24 24 24 24 24 24 24 25 27 27 29 30 31 31
23 22 22 23 24 24 23 22 22 21 21 22 23 24 25 25 25 25 24 23 24 24 24 23 23 23 24 24 24 23 23 24 23 23 23 24 25 26 27 28 29 31 32 33
20 19 18 18 19 19 19 20 20 20 19 19 19 21 22 21 22 22 21 20 21 21 22 22 22 21 21 21 21 21 22 22 22 23 24 25 25 26 27 29 30 31 32 33
17 16 16 15 16 16 15 16 16 15 16 16 17 17 18 18 19 19 18 18 19 20 20 19 19 19 19 20 20 21 21 22 23 24 25 25 26 26 27 29 30 32 34 36
14 13 13 12 12 12 12 13 13 12 12 13 13 14 15 16 17 17 17 17 18 18 17 17 17 18 18 19 19 20 21 22 23 24 25 25 26 27 28 30 32 34 36 38
12 11 10 9 9 9 9 9 9 9 9 9 11 11 12 14 16 17 16 16 16 16 15 15 16 16 17 17 18 19 20 22 23 23 24 25 26 28 30 32 34 36 37 38
9 8 7 7 6 6 7 7 7 7 7 8 9 10 10 12 12 12 12 12 11 12 12 12 13 14 15 16 17 18 20 21 22 24 25 27 29 31 32 34 36 37 38 39
8 8 8 7 7 6 6 6 6 6 6 6 7 7 7 8 8 7 7 7 8 9 10 11 12 13 14 15 16 18 20 22 24 25 27 29 31 33 34 35 36 37 37 38
9 8 8 8 8 8 8 7 7 6 6 6 6 6 6 6 6 6 6 7 8 10 11 11 12 13 14 16 18 20 22 24 25 27 29 31 32 33 33 34 35 35 35 35
10 10 9 9 8 8 8 7 7 6 6 6 6 5 5 5 6 6 7 8 9 10 11 12 13 15 17 19 21 23 24 26 27 28 30 31 31 32 32 32 32 32 32 32
11 10 9 9 8 7 7 6 6 5 4 4 4 4 5 6 6 7 8 9 11 12 13 15 16 18 20 22 23 25 26 27 28 29 29 29 29 29 30 30 30 30 30 30
11 10 9 9 8 8 7 6 5 4 4 4 5 6 7 8 9 10 11 12 13 14 16 18 19 20 22 23 24 26 26 27 28 28 28 28 28 28 28 28 28 28 28 27
11 10 9 8 7 7 6 5 5 5 5 6 7 8 9 10 11 13 14 15 16 17 19 20 21 22 23 24 25 26 27 27 26 26 26 26 26 26 26 26 26 26 25 25
10 9 8 8 7 5 5 5 5 6 8 9 10 11 12 13 14 15 16 18 19 20 21 22 23 23 24 24 25 25 25 25 25 25 25 25 24 24 24 24 23 23 23 22
9 8 7 7 6 6 6 6 7 8 10 11 12 13 14 16 17 18 19 19 20 21 22 23 23 23 23 24 23 23 23 23 23 23 22 22 22 21 21 21 20 20 20 20
Wind_Direction
236 235 237 236 237 240 244 249 252 253 255 257 261 269 276 281 290 286 286 292 293 301 299 293 296 296 286 287 291 283 271 266 260 254 246 240 240 240 240 244 247 247 250 254
239 242 243 241 241 243 245 247 250 252 253 255 262 268 271 277 286 287 287 289 293 291 292 290 292 292 287 288 285 283 275 265 263 261 254 250 249 249 248 249 249 249 250 255
241 244 245 243 243 245 248 250 250 252 255 256 259 265 273 276 280 281 279 285 287 285 284 283 283 284 284 284 278 275 274 268 263 262 260 258 256 254 255 255 255 251 253 257
243 243 244 244 243 245 247 250 252 253 254 256 259 265 270 274 274 273 276 277 280 281 279 277 277 279 281 281 278 276 277 277 272 265 265 267 269 267 266 264 260 260 260 261
245 244 244 242 242 244 246 249 252 253 255 256 258 262 266 271 271 269 271 271 274 277 276 274 273 273 273 272 272 274 277 277 273 269 271 271 272 268 268 270 266 264 263 263
246 247 245 240 241 243 246 250 252 254 256 257 261 262 266 268 268 268 268 268 267 267 269 267 267 270 270 270 268 270 274 274 270 269 269 272 274 273 273 272 268 266 268 269
246 248 247 242 241 244 247 250 253 255 256 259 257 260 262 263 265 265 264 266 266 266 264 263 264 265 266 267 267 269 272 274 272 270 273 276 278 281 280 277 274 272 272 271
244 246 247 244 243 245 248 250 252 253 254 258 257 260 261 262 264 264 264 266 266 262 262 261 260 261 263 264 266 268 270 273 275 276 278 277 280 282 282 280 278 277 276 275
243 246 247 247 248 249 249 251 253 255 255 258 258 260 261 263 264 264 264 265 264 260 260 260 260 261 265 268 268 269 271 274 277 279 281 281 281 282 282 281 280 280 278 279
243 246 249 251 251 252 252 254 255 256 257 258 259 260 262 263 263 264 264 264 263 259 259 260 260 263 265 265 269 271 272 274 275 279 281 280 282 283 281 280 279 279 279 282
243 248 253 253 252 251 253 256 256 256 258 259 259 261 263 265 263 262 262 261 259 257 258 260 261 263 264 267 270 271 272 273 276 279 280 279 281 281 281 280 281 284 284 285
245 247 250 250 251 252 253 254 256 258 257 258 258 259 260 262 262 261 260 259 258 258 257 259 260 262 264 265 268 270 271 272 276 279 280 281 281 281 282 281 282 283 284 285
246 247 249 249 251 253 256 258 261 262 259 258 259 260 260 259 258 258 258 258 258 259 258 257 259 261 263 265 267 270 273 275 277 278 279 279 280 281 282 282 283 284 286 288
244 248 250 250 252 255 257 262 265 265 261 259 259 258 258 257 255 253 254 255 254 255 254 255 258 262 265 267 269 271 273 275 277 276 278 282 283 283 284 285 286 288 289 291
240 244 247 250 253 256 260 263 264 264 261 257 255 253 250 249 248 247 249 250 251 250 250 253 257 259 262 266 268 269 272 275 277 278 281 284 284 285 286 287 289 290 292 293
241 244 247 252 255 256 256 259 260 258 254 252 252 249 246 245 244 243 243 245 248 251 250 251 254 257 260 264 267 270 272 274 276 279 282 284 285 286 287 289 292 293 295 296
239 241 244 248 252 253 252 250 250 251 249 248 242 237 238 239 239 239 240 242 246 246 247 251 256 259 263 266 268 270 272 275 279 283 284 286 288 290 291 293 295 296 297 298
235 236 239 243 245 243 242 239 240 240 242 238 232 232 234 237 236 233 233 235 238 241 245 251 256 260 266 269 270 272 276 280 283 284 287 290 292 294 295 296 298 298 299 299
222 221 217 217 216 215 219 220 219 222 223 221 220 222 224 224 221 219 221 225 231 237 243 251 259 264 265 268 271 275 279 283 287 290 292 295 296 296 297 298 299 300 301 302
202 196 189 184 184 183 182 184 187 189 188 188 187 184 191 201 203 207 218 231 242 249 254 260 264 267 271 278 282 286 289 292 293 295 296 296 297 298 299 300 301 302 303 304
187 183 183 183 180 177 175 172 169 169 171 174 176 176 180 192 204 221 236 248 256 261 267 271 276 280 284 288 291 293 294 296 297 298 298 298 298 299 300 301 303 304 305 306
177 178 175 171 166 169 170 171 170 172 176 180 182 188 200 215 227 239 251 261 267 272 277 280 283 285 288 291 294 296 297 298 298 298 299 299 300 301 303 304 305 306 307 308
172 175 174 173 175 177 177 176 173 171 177 187 199 215 228 242 249 260 272 279 282 285 287 289 291 293 295 296 297 298 298 299 299 300 300 301 302 303 304 305 306 307 308 309
173 174 177 178 177 177 178 182 187 193 206 219 232 243 252 261 267 275 281 284 286 288 290 292 294 296 297 297 298 298 299 300 301 301 302 302 302 303 304 305 306 307 308 309
173 175 177 178 177 177 182 192 208 228 243 251 256 261 267 274 280 285 288 288 289 292 294 295 295 296 297 297 298 299 300 300 300 301 302 302 303 304 305 305 307 308 310 311
174 174 176 180 184 194 211 224 239 252 259 261 266 272 278 283 288 290 292 292 293 295 295 295 295 296 297 297 299 300 300 301 301 302 303 304 304 305 306 307 309 311 313 314
178 183 192 202 210 224 240 250 257 263 268 272 278 283 287 290 292 292 293 293 294 294 294 294 295 296 297 298 300 301 301 302 303 303 304 305 306 307 309 310 312 314 317 319